Location: Enborne
(51.3833°N, 1.3667°W)
Time: 15:29:53
(UTC+00:00)

NOSS 2-2 (C) - Pass Details

Date: 23 January 2021
Orbit: 463 x 1745 km, 63.3° (Epoch: 03 March)

Event Time Altitude Azimuth Distance (km) Brightness Sun altitude
Rises 17:25:58 0° 302° (WNW) 2,686 7.4 -7.3°
Reaches altitude 10° 17:28:29 10° 321° (NW) 1,920 6.3 -7.6°
Maximum altitude 17:31:38 19° 9° (N) 1,571 5.4 -8.1°
Drops below altitude 10° 17:35:25 10° 55° (NE) 2,364 5.9 -8.6°
Enters shadow 17:35:29 10° 56° (NE) 2,384 5.9 -8.7°
